Regional Weather Roundup
Issued by NWS

Home | Current Version | Previous Version | Text Only | Print | Product List | Glossary Off
Versions: 1 2 3 4 5 6 7 8 9 10 11 12 13 14 15 16 17 18 19 20 21 22 23 24 25 26 27 28 29 30 31 32 33 34 35 36 37 38 39 40 41 42 43 44 45 46 47 48 49 50

000
ASUS43 KIND 251459
RWRIN

WEATHER ROUNDUP FOR INDIANA
NATIONAL WEATHER SERVICE INDIANAPOLIS IN
1100 AM EDT WED MAY 25 2016

NOTE: "FAIR" INDICATES FEW OR NO CLOUDS BELOW 12,000 FEET WITH NO
SIGNIFICANT WEATHER AND/OR OBSTRUCTIONS TO VISIBILITY.

* - STATION DOES NOT REPORT WEATHER SUCH AS PRECIPITATION OR FOG.

+ - STATION NOT QUALITY CONTROLLED BY THE NATIONAL WEATHER SERVICE.
    USE DATA WITH CAUTION...ESPECIALLY DEWPOINT AND RELATIVE
    HUMIDITY OBSERVATIONS.

INZ001>003-010>013-019-020-251600-
NORTHWEST INDIANA

CITY           SKY/WX    TMP DP  RH WIND       PRES   REMARKS
GARY /AIRPORT/ MOSUNNY   77  70  78 S12       30.03
RENSSELAER +   SUNNY     77  61  57 S8G16     30.04F

$$

LMZ046-743>745-251600-
SOUTHERN LAKE MICHIGAN

STATION/POSITION TIME  TEMP    WIND        PRES    WAVE
                       AIR SEA DIR/SP/G            HT
                 (UTC) (F)     (DEG/KT/KT) (MB)    (FT)
BURNS HARBOR     1400   74     200/ 10/ 15 1017.3F
MICHIGAN CITY    1400   73     170/  8/  9   N/A
5NW MICH CITY    1400   67 58  190/  4/  4   N/A     0

$$

INZ004-005-014>016-021>024-251600-
NORTH CENTRAL INDIANA

CITY           SKY/WX    TMP DP  RH WIND       PRES   REMARKS
ELKHART        SUNNY     77  66  69 S6        30.06F
GOSHEN         SUNNY     78  59  51 SE9       30.06F
SOUTH BEND     SUNNY     78  62  57 S9        30.06S

$$

INZ006>009-017-018-025>027-251600-
NORTHEAST INDIANA

CITY           SKY/WX    TMP DP  RH WIND       PRES   REMARKS
ANGOLA *+      SUNNY     79  61  53 S7        30.08F
FORT WAYNE     CLOUDY    76  58  53 S10       30.09F

$$

INZ028-029-035-036-043>045-051>053-251600-
WEST CENTRAL INDIANA

CITY           SKY/WX    TMP DP  RH WIND       PRES   REMARKS
CRAWFORDSVL +  SUNNY     75  61  62 S13       30.06F
GREENCASTLE +  SUNNY     75  64  69 S5        30.08F
LAFAYETTE      SUNNY     75  60  59 SW8       30.04F
TERRE HAUTE    SUNNY     76  61  59 S10       30.06F

$$

INZ030>032-037>040-046>048-054>057-064-065-251600-
CENTRAL INDIANA

CITY           SKY/WX    TMP DP  RH WIND       PRES   REMARKS
ANDERSON       MOSUNNY   73  59  60 S6        30.11F
COLUMBUS       MOSUNNY   75  63  64 SE9       30.09F
INDIANAPOLIS   PTSUNNY   76  62  62 S10       30.06F
-EAGLE CREEK   SUNNY     76  60  57 S6        30.07F
KOKOMO *+      MOSUNNY   75  61  60 SW10G17   30.08F
SHELBYVILLE    SUNNY     78  59  51 S8        30.09F

$$

INZ033-034-041-042-049-050-058-059-251600-
EAST CENTRAL INDIANA

CITY           SKY/WX    TMP DP  RH WIND       PRES   REMARKS
MUNCIE         CLOUDY    73  56  54 S10       30.10F

$$

INZ060-061-067>069-081>083-085>088-251600-
SOUTHWEST INDIANA

CITY           SKY/WX    TMP DP  RH WIND       PRES   REMARKS
EVANSVILLE     PTSUNNY   73  62  68 SW9       30.09S
HUNTINGBURG *+ CLOUDY    75  63  64 SW8       30.10R

$$

INZ062-063-066-070>080-084-089>092-251600-
SOUTH CENTRAL AND SOUTHEAST INDIANA

CITY           SKY/WX    TMP DP  RH WIND       PRES   REMARKS
BLOOMINGTON    SUNNY     78  58  49 SW8       30.08F
MADISON *+     CLOUDY    70  57  64 SE6       30.14S
SEYMOUR +      CLOUDY    77  59  53 S6        30.10F

$$




USA.gov is the U.S. government's official web portal to all federal, state and local government web resources and services.